Regional Weather Roundup
Issued by NWS Little Rock, AR

Home | Current Version | Previous Version | Graphics & Text | Print | Product List | Glossary On
Versions: 1 2 3 4 5 6 7 8 9 10 11 12 13 14 15 16 17 18 19 20 21 22 23 24 25 26 27 28 29 30 31 32
000
ASUS44 KLZK 250005
RWRLZK

WEATHER ROUNDUP FOR ARKANSAS
NATIONAL WEATHER SERVICE LITTLE ROCK AR
700 PM CDT SUN SEP 24 2017

NOTE: "FAIR" INDICATES FEW OR NO CLOUDS BELOW 12,000 FEET WITH NO
SIGNIFICANT WEATHER AND/OR OBSTRUCTIONS TO VISIBILITY.

ARZ001-003-010-029-250100-
NORTHWEST ARKANSAS

CITY           SKY/WX    TMP DP  RH WIND       PRES   REMARKS
FAYETTEVILLE   CLEAR     81  65  58 SE8       29.95R
6HR MIN TEMP:  81; 6HR MAX TEMP:  88;

FORT SMITH     CLOUDY    82  65  56 VRB7      29.90R
6HR MIN TEMP:  82; 6HR MAX TEMP:  93;

HARRISON       MOCLDY    77  65  66 SE5       29.98R
6HR MIN TEMP:  73; 6HR MAX TEMP:  91;

BENTONVILLE    PTCLDY    83  63  50 S3        29.97R
6HR MIN TEMP:  82; 6HR MAX TEMP:  89;

ROGERS         MOCLDY    82  66  58 SE3       29.96R
6HR MIN TEMP:  82; 6HR MAX TEMP:  89;

SILOAM SPGS    CLEAR     80  66  62 SE5       29.94R
6HR MIN TEMP:  80; 6HR MAX TEMP:  89;

HIGHFILL       CLEAR     82  64  54 S3        29.95R
6HR MIN TEMP:  82; 6HR MAX TEMP:  89;

$$

ARZ004-005-016-250100-
NORTH CENTRAL ARKANSAS

CITY           SKY/WX    TMP DP  RH WIND       PRES   REMARKS
BATESVILLE     CLEAR     81  67  62 E7        29.96R
6HR MIN TEMP:  81; 6HR MAX TEMP:  91;

FLIPPIN        CLEAR     82  63  52 E3        29.95R
6HR MIN TEMP:  82; 6HR MAX TEMP:  91;

MTN HOME       CLEAR     81  66  60 S5        29.96R
6HR MIN TEMP:  81; 6HR MAX TEMP:  91;

$$

ARZ040-041-250100-
WEST CENTRAL ARKANSAS

CITY           SKY/WX    TMP DP  RH WIND       PRES   REMARKS
MENA           MOCLDY    81  68  65 CALM      29.96R
MOUNT IDA      CLEAR     72  69  90 CALM      29.93R
6HR MIN TEMP:  69; 6HR MAX TEMP:  91; 6HR PCP:  0.36;

$$

ARZ009-017-025-026-028-250100-
NORTHEAST ARKANSAS

CITY           SKY/WX    TMP DP  RH WIND       PRES   REMARKS
JONESBORO      PTCLDY    80  70  71 S3        29.95S
6HR MIN TEMP:  78; 6HR MAX TEMP:  93; 6HR PCP:  0.01;

NEWPORT        CLEAR     76  71  85 E3        29.96R
6HR MIN TEMP:  74; 6HR MAX TEMP:  92; 6HR PCP:  0.03;

BLYTHEVILLE    PTCLDY    78  71  79 SE5       29.96F
6HR MIN TEMP:  76; 6HR MAX TEMP:  91; 6HR PCP: TRACE;

$$

ARZ022-023-033-042-044-250100-
CENTRAL ARKANSAS

CITY           SKY/WX    TMP DP  RH WIND       PRES   REMARKS
LITTLE ROCK    PTCLDY    83  66  56 SE9       29.92S HX  85
6HR MIN TEMP:  83; 6HR MAX TEMP:  91;

JACKSONVILLE   CLEAR     86  67  52 E5        29.92S HX  88
6HR MIN TEMP:  86; 6HR MAX TEMP:  94;

CONWAY           N/A     82  66  57 CALM      29.91R HX  85
SEARCY         CLEAR     83  70  64 E5        29.95S HX  87
6HR MIN TEMP:  83; 6HR MAX TEMP:  93;

HOT SPRINGS    PTCLDY    76  71  85 S5        29.93R
6HR MIN TEMP:  73; 6HR MAX TEMP:  93; 6HR PCP:  0.12;

RUSSELLVILLE   MOCLDY    78  67  68 CALM      29.93S
6HR MIN TEMP:  77; 6HR MAX TEMP:  92;

CLINTON        FAIR      82  68  61 CALM      29.94R HX  85
$$

ARZ036-250100-
EAST ARKANSAS

CITY           SKY/WX    TMP DP  RH WIND       PRES   REMARKS
WEST MEMPHIS   CLEAR     74  68  81 CALM      29.94S
6HR MIN TEMP:  74; 6HR MAX TEMP:  91; 6HR PCP: TRACE;

$$

ARZ050-053-066-070-073-250100-
SOUTHWEST ARKANSAS

CITY           SKY/WX    TMP DP  RH WIND       PRES   REMARKS
ARKADELPHIA    FAIR      78  74  87 N3        29.91R
6HR MIN TEMP:  78; 6HR MAX TEMP:  91; 6HR PCP:  0.16;

CAMDEN         CLEAR     81  72  74 CALM      29.90R
TEXARKANA      MOCLDY    81  65  58 S16G23    29.91R
6HR MIN TEMP:  81; 6HR MAX TEMP:  91;

EL DORADO      CLEAR     79  75  87 CALM      29.91S
6HR MIN TEMP:  77; 6HR MAX TEMP:  90; 6HR PCP:  0.04;

DE QUEEN       PTCLDY    82  70  66 E6        29.89R HX  86
6HR MIN TEMP:  82; 6HR MAX TEMP:  92;

$$

ARZ056-057-069-250100-
SOUTHEAST ARKANSAS

CITY           SKY/WX    TMP DP  RH WIND       PRES   REMARKS
PINE BLUFF     CLEAR     81  65  58 CALM      29.92S
6HR MIN TEMP:  81; 6HR MAX TEMP:  91;

STUTTGART      CLEAR     84  66  54 SW3       29.93S HX  86
6HR MIN TEMP:  84; 6HR MAX TEMP:  92;

MONTICELLO     CLEAR     84  68  58 SE5       29.92S HX  87
6HR MIN TEMP:  83; 6HR MAX TEMP:  91;


$$






USA.gov is the U.S. government's official web portal to all federal, state and local government web resources and services.